User: anonymous   Login
Location: Elk Forest
(39.5314°N, 75.8738°W)
Time: 06:20:01
(UTC-04:00)
Language:

Resurs 01 Rocket - Orbit

View from above orbital plane
View from above orbital plane
View from above satellite
View from above satellite

Ground track
Ground track

The orbit data is extracted from the following two-line orbital elements,

1 23343U 94074B   14304.47625324  .00000538  00000-0  85396-4 0  1571
2 23343 098.2254 310.8279 0005754 262.4317 259.5757 14.76252392 75208
Epoch (UTC): 31 October 2014 11:25:48
Eccentricity: 0.0005754
inclination: 98.2254°
perigee height: 637 km
apogee height: 645 km
right ascension of ascending node: 310.8279°
argument of perigee: 262.4317°
revolutions per day: 14.76252392
mean anomaly at epoch: 259.5757°
orbit number at epoch: 7520

The dashed part of the orbit path shows where the satellite is in the earth's shadow,  

DLR